NOAA-18
1 28654U 05018A 10229.76393479 .00000448 00000-0 27199-3 0 04454
2 28654 098.9526 175.8605 0013484 238.7114 121.2742 14.11381964270123
NOAA-19
1 33591U 09005A 10229.76544613 .00000090 00000-0 73804-4 0 06436
2 33591 098.7901 170.5845 0015012 113.0771 247.2025 14.11074991078594
HUBBLE
1 20580U 90037B 10230.21707886 .00000508 00000-0 25988-4 0 6298
2 20580 028.4680 194.9063 0003678 141.1071 218.9781 15.01017702914088
ISS
1 25544U 98067A 10230.69424966 .00013402 00000-0 10514-3 0 7297
2 25544 051.6460 270.7321 0005761 240.7464 217.5417 15.71898830673308
CO-58
1 28895U 05043F 10229.18613557 .00000072 00000-0 24424-4 0 06608
2 28895 098.0048 111.6152 0019135 094.3512 265.9862 14.59921001255881
FALCON
1 30776U 07006E 10230.56030999 .00000937 00000-0 69889-4 0 8940
2 30776 035.4341 025.5858 0001820 335.1792 024.8834 15.03770964189457
MAST
1 31126U 07012K 10230.44935067 .00000091 00000-0 30741-4 0 9402
2 31126 097.9320 269.2274 0095248 033.3914 327.3246 14.53611594177100
CAPE1
1 31130U 07012P 10230.63007204 -.00000028 00000-0 41540-5 0 9615
2 31130 097.9337 266.6847 0103617 041.0230 319.8690 14.52210389176729
COMPASS
1 32787U 08021E 10230.28859440 .00000685 00000-0 92985-4 0 7527
2 32787 097.8902 294.1786 0016999 084.2133 276.0996 14.81941063124694
AAUSAT2
1 32788U 08021F 10230.42062069 .00000648 00000-0 87978-4 0 7443
2 32788 097.8900 294.4507 0016747 083.6990 276.6123 14.82087270124726
DO-64
1 32789U 08021G 10229.68032554 .00000896 00000-0 11865-3 0 07644
2 32789 097.8961 294.2645 0016775 084.6631 275.6536 14.82260852124613
CO-66
1 32791U 08021J 10230.65740715 .00000032 00000-0 10732-4 0 7466
2 32791 097.8912 294.5487 0017253 080.6674 279.6491 14.81713513124704
RS-30
1 32953U 08025A 10230.74996604 .00000010 00000-0 00000 0 0 9628
2 32953 082.5054 350.7712 0018147 329.1960 030.8056 12.43007232101518
TACSAT-3
1 35001U 09028A 10229.95824531 .00006386 00000-0 14886-3 0 03671
2 35001 040.4544 202.9115 0020116 105.7772 254.5283 15.42354096070174
PHARMSAT
1 35002U 09028B 10229.30945813 .00005349 00000-0 12349-3 0 03487
2 35002 040.4682 204.6113 0022769 105.5480 254.7852 15.42814715070099
HAWKSAT1
1 35003U 09028C 10229.27978367 .00012117 00000-0 24088-3 0 03679
2 35003 040.4576 197.6807 0020616 123.9326 236.3453 15.46476495070170
CP6
1 35004U 09028D 10229.95007333 .00014672 00000-0 28021-3 0 03726
2 35004 040.4579 192.1794 0019585 133.7143 226.5363 15.47540830070287
AEROCUB3
1 35005U 09028E 10229.94384004 .00049528 00000-0 69865-3 0 04134
2 35005 040.4681 186.2070 0018201 159.7530 200.4096 15.55530400070358
CASTOR
1 35694U 09038F 10230.44082147 .07179566 12689-4 99310-4 0 6559
2 35694 051.5930 222.0149 0004218 308.0851 053.0105 16.48877011 61107
METEOR-M
1 35865U 09049A 10230.76503089 .00000176 00000-0 10000-3 0 5717
2 35865 098.7533 284.1001 0002036 165.2857 194.8318 14.21831251 47615
RS-38
1 35869U 09049E 10230.80009872 .00000177 00000-0 10000-3 0 5842
2 35869 098.7513 284.1711 0004375 175.0470 185.0716 14.21986965 47621
